2016-061A

Last updated on Oct. 18, 2016, 5:17 p.m. UTC

1 41812U 16061A   16292.50984508 -.00049159  00000-0 -47080-3 0  9991
2 41812  42.7851 359.7839 0007735 268.0740 232.1227 15.65717640   245

Satellite is not in orbit.